SCP
0 0 0 0 0 0 0 0 0 0 0 0 0 0 0 0 0 0 0 0 0 0 0 0 0 0 0 0 0 0 0 0 0 1 1 2 2 2 1 2 1 1 0 0
0 0 0 0 0 0 0 0 0 0 0 0 0 0 0 0 0 0 0 0 0 0 0 0 0 0 1 0 0 1 1 0 1 1 1 1 2 2 2 2 2 0 0 0
0 0 0 0 0 0 0 0 0 0 0 0 0 0 0 0 0 0 0 0 0 0 1 0 1 1 1 1 1 0 1 1 1 1 2 2 2 2 2 2 1 1 0 0
0 0 0 0 0 0 0 0 0 0 0 0 0 0 0 0 0 0 0 0 0 0 1 1 1 1 1 1 0 1 1 0 0 1 1 2 2 2 2 1 1 1 1 1
0 0 0 0 0 0 0 0 0 0 0 0 0 0 0 0 0 0 0 0 0 1 1 1 1 1 2 2 1 1 1 1 1 1 1 2 3 2 2 1 1 0 0 0
0 0 0 1 0 0 0 0 0 0 0 0 0 0 0 0 0 0 0 0 0 0 1 1 1 2 3 3 3 2 1 2 0 1 2 2 1 2 2 1 1 1 1 0
1 0 0 1 0 0 0 0 0 0 0 0 0 0 0 0 1 1 1 1 1 1 1 2 3 4 4 4 3 3 3 1 1 2 4 3 3 3 2 0 1 0 1 1
1 1 0 0 0 0 0 0 0 0 0 0 0 0 1 1 1 1 1 2 2 2 3 4 5 6 6 5 4 3 2 3 3 3 3 2 3 2 1 1 1 1 1 1
0 1 1 0 0 0 0 0 0 0 0 0 0 0 1 2 2 2 2 2 3 4 6 7 7 6 7 8 2 2 2 2 2 3 1 4 2 1 1 1 1 1 1 1
0 0 0 0 0 0 0 0 0 1 1 0 1 1 1 2 2 3 3 3 4 4 5 6 6 4 3 2 2 2 3 3 3 3 4 3 2 2 2 2 1 1 1 2
1 0 0 0 0 0 0 0 0 0 0 1 2 2 2 2 3 3 3 3 3 3 3 3 2 1 0 0 0 1 1 2 4 4 3 0 0 0 1 0 0 1 1 1
0 0 0 0 0 0 0 0 0 0 0 0 0 0 0 1 2 3 2 3 2 1 1 0 -0 -0 0 0 1 1 2 3 3 2 1 1 0 0 0 0 0 0 0 0
1 0 0 0 0 0 0 0 0 0 0 0 0 0 0 0 0 0 1 3 4 1 1 0 0 1 1 1 2 3 3 2 1 1 1 0 0 0 0 0 0 0 0 0
0 0 0 0 0 0 0 0 0 0 0 0 0 0 0 0 0 0 0 0 1 1 1 1 1 1 1 2 2 2 2 1 1 1 1 0 0 0 0 0 0 0 0 0
0 0 0 0 0 0 0 0 0 0 0 0 0 0 0 0 0 0 0 0 0 0 1 1 1 1 1 1 2 1 1 1 1 0 0 0 0 0 0 0 0 0 0 0
0 0 0 0 0 0 0 0 0 0 0 0 0 0 0 0 0 0 0 0 0 0 1 1 1 1 1 1 1 0 0 0 0 0 0 0 0 0 0 0 0 0 0 0
0 0 0 0 0 0 0 0 0 0 0 0 0 0 0 0 0 0 0 0 0 1 1 1 1 1 1 0 0 0 0 0 0 0 0 0 0 0 0 0 0 0 0 0
0 0 0 0 0 0 0 0 0 0 0 0 0 0 0 0 0 0 0 0 0 0 1 1 0 0 0 1 0 0 0 0 0 0 0 0 0 0 0 0 0 0 0 0
0 0 -0 -0 -0 -0 -0 0 0 0 0 0 0 0 0 0 0 0 0 0 0 0 0 0 0 0 0 0 0 0 0 0 0 0 0 0 0 0 0 0 0 0 0 0
0 -0 -0 -0 0 0 0 0 0 0 0 0 0 0 0 0 0 0 0 0 0 0 0 0 0 0 0 0 0 0 0 0 0 0 0 0 0 0 0 0 0 0 0 0
-0 0 0 -0 0 0 0 0 0 0 0 0 0 0 0 0 0 0 0 0 0 0 0 0 0 0 0 0 0 0 0 0 0 0 0 0 0 0 0 0 0 0 0 0
-0 -0 0 0 0 0 0 0 0 0 0 0 0 0 0 0 0 0 0 0 0 0 0 0 0 0 0 0 0 0 0 0 0 0 0 0 0 0 0 0 0 0 0 0
0 0 0 0 0 0 0 0 0 0 0 0 0 0 0 0 0 0 0 0 0 0 0 0 0 0 0 0 0 0 0 0 0 0 0 0 0 0 0 0 0 0 0 0
0 0 0 0 0 0 0 0 0 0 0 0 0 0 0 0 0 0 0 0 0 0 0 0 0 0 -0 0 0 0 0 0 0 0 0 0 0 0 0 0 0 0 0 0
0 0 0 0 0 0 0 0 -0 0 0 0 0 0 0 0 0 0 0 0 0 0 0 0 0 0 0 0 0 0 0 0 0 0 0 0 0 0 0 0 0 0 0 0
0 0 0 0 0 0 0 0 0 0 0 0 0 0 0 0 0 0 0 0 0 0 0 0 0 0 0 0 0 0 0 0 0 0 0 0 0 0 0 0 0 0 0 0
0 0 0 0 0 0 0 0 0 0 0 0 0 0 0 0 0 0 0 0 0 0 0 0 0 0 0 0 0 0 0 0 0 0 0 0 0 0 0 0 0 0 0 0
Wind_Speed_500mb
41 44 38 47 56 57 57 61 54 48 56 45 45 37 43 45 44 38 33 35 48 57 63 64 64 66 60 60 60 57 56 56 56 52 53 55 71 85 85 83 75 70 63 72
42 46 49 53 53 60 62 59 57 65 62 45 59 69 55 61 52 49 42 44 48 54 57 60 61 59 53 51 50 48 50 50 48 49 52 54 67 81 80 90 98 95 93 91
31 34 32 46 52 53 56 64 57 56 50 51 56 45 59 58 58 52 51 48 48 61 68 58 52 49 49 46 42 42 43 46 47 49 51 54 55 63 75 92 105 105 103 85
25 16 35 31 42 47 52 53 59 55 47 50 54 57 58 62 53 49 51 41 42 47 48 46 45 44 41 40 41 43 40 42 43 41 44 45 47 52 56 73 100 104 98 88
24 28 34 19 13 19 31 52 50 49 47 44 69 64 42 43 43 45 43 37 38 42 46 45 46 45 44 43 44 45 42 38 38 37 37 41 43 46 50 57 75 98 83 77
16 29 35 10 20 21 21 29 46 52 49 49 45 30 34 38 33 29 27 36 34 41 47 49 49 53 56 49 45 40 37 29 32 34 37 40 39 42 46 55 61 75 74 69
21 22 11 9 20 2 18 12 41 47 68 64 43 29 6 17 22 24 27 35 40 42 49 51 53 56 53 46 41 37 33 33 35 36 39 43 33 40 47 47 55 71 69 47
14 20 23 15 3 4 20 36 31 25 30 40 28 30 30 28 39 42 45 51 52 50 48 49 50 47 43 37 33 32 35 30 29 34 33 37 34 34 47 46 55 67 65 52
18 9 16 17 13 9 14 16 26 11 17 31 42 52 52 54 54 50 51 54 53 54 54 43 40 35 35 30 26 29 33 33 32 35 41 28 27 31 39 44 44 51 46 39
20 12 24 30 30 25 23 24 27 30 36 39 43 42 47 52 48 45 43 44 42 43 43 37 29 22 21 19 26 30 32 31 31 34 26 22 19 21 25 33 37 38 35 25
18 26 33 35 27 15 24 28 33 42 43 37 40 38 46 45 49 38 45 43 41 43 39 38 32 29 27 28 29 27 30 32 32 26 33 35 33 29 24 24 25 21 21 22
19 35 30 20 19 15 16 24 30 36 43 42 44 45 46 39 39 47 33 43 39 33 29 33 32 31 32 34 31 29 29 27 25 21 29 25 22 28 24 19 25 29 30 21
10 19 38 50 23 17 19 30 34 42 43 41 36 40 40 38 35 33 29 32 32 24 26 30 32 35 34 35 32 31 30 28 24 24 21 19 18 18 16 24 22 20 21 23
41 49 51 37 32 21 8 29 27 35 36 31 26 27 28 30 27 23 24 24 15 17 21 22 23 26 28 29 27 23 24 31 22 20 23 22 16 18 20 18 21 24 27 26
52 47 42 39 30 26 21 25 12 25 16 22 22 19 22 22 20 17 18 18 8 10 18 21 24 24 23 24 21 19 20 20 21 18 16 15 15 19 21 22 23 24 30 29
45 41 36 40 32 31 32 15 11 19 15 12 10 12 14 17 12 8 8 5 7 11 17 19 21 24 23 22 21 20 22 25 20 17 14 12 11 16 19 21 21 21 19 19
36 35 34 35 32 27 14 16 17 13 11 13 14 9 10 9 7 9 8 3 10 16 17 18 16 17 17 16 16 16 15 12 15 12 11 11 10 12 13 13 17 20 20 23
30 30 27 21 6 11 8 14 18 13 17 16 15 18 20 17 16 12 9 13 14 18 16 13 10 14 18 20 16 13 14 11 10 8 10 10 12 13 13 16 18 19 20 26
22 24 19 15 13 14 12 11 11 16 18 19 20 22 20 22 23 21 19 20 17 16 15 16 13 14 12 7 6 9 12 14 11 10 11 17 14 15 19 20 21 23 22 24
23 22 24 19 18 16 15 14 15 17 17 16 18 24 26 24 19 17 17 21 14 13 13 10 9 8 5 10 12 8 13 15 16 14 13 13 16 18 18 24 23 21 20 22
25 28 27 19 18 20 18 14 16 20 21 21 22 23 20 20 19 17 13 14 16 17 16 18 13 10 9 10 9 9 10 12 14 15 14 15 17 19 19 19 21 22 22 22
19 22 21 21 20 21 21 20 21 22 20 19 20 21 20 22 18 16 15 14 9 15 11 10 8 13 7 12 4 5 7 9 11 13 14 15 17 19 21 20 20 21 22 22
13 14 18 20 16 19 20 20 22 23 22 19 17 20 23 18 14 11 13 8 3 10 10 7 8 11 12 8 2 2 3 4 7 9 12 15 17 20 22 23 23 25 25 26
15 14 16 19 17 7 11 13 16 18 16 14 15 14 16 14 8 10 6 4 3 7 5 3 2 1 3 4 6 7 9 10 12 14 16 20 22 25 27 29 30 31 32 31
9 9 13 13 13 18 14 12 9 14 15 9 12 12 13 12 13 11 7 6 6 1 8 11 12 14 14 16 18 18 17 17 17 16 18 19 21 23 26 27 27 29 30 30
13 9 14 14 8 10 13 13 15 17 17 14 13 14 16 16 12 14 12 12 11 13 13 15 16 17 17 20 22 24 25 24 23 22 20 20 18 20 23 25 25 25 26 28
15 18 18 16 13 13 13 13 15 17 17 14 17 17 18 16 17 16 18 19 19 20 23 24 25 25 25 26 27 27 29 30 30 27 24 25 24 21 24 28 28 26 24 22
Wind_Direction_500mb
239 260 246 228 214 222 235 239 238 237 238 229 239 224 241 252 254 257 242 226 208 202 201 201 203 207 208 210 212 213 217 218 222 223 223 223 231 234 234 228 222 214 212 232
247 241 244 248 240 225 223 234 241 242 247 236 226 244 244 248 250 249 243 227 209 203 201 202 201 200 199 202 205 207 208 215 216 220 224 226 234 238 231 224 224 225 232 246
235 221 241 239 240 241 235 225 231 235 238 234 240 233 234 238 239 242 238 224 210 206 204 203 197 195 193 193 194 200 205 205 209 214 225 233 237 237 235 228 224 229 233 233
239 229 234 245 235 237 244 238 229 235 238 225 238 231 230 235 242 244 242 229 219 211 203 199 190 190 186 185 188 189 193 199 202 205 218 228 232 236 230 230 231 232 232 231
237 231 247 246 25 335 274 248 240 242 233 235 230 229 253 241 235 236 238 226 211 204 192 185 180 178 179 176 177 182 184 188 198 202 209 218 225 234 234 229 230 231 230 237
190 246 244 70 353 324 306 257 239 235 223 227 230 230 239 208 222 224 215 198 186 185 179 172 169 167 166 169 169 170 173 178 197 206 210 213 212 227 229 232 235 226 224 235
197 233 200 33 342 98 224 294 322 301 230 226 230 234 182 169 151 162 168 159 154 158 155 153 155 158 156 159 166 167 170 187 201 207 209 213 201 218 228 232 224 220 226 237
205 220 221 2 259 253 340 324 313 276 265 235 196 155 137 129 123 129 131 130 133 135 132 137 142 146 150 154 165 179 191 196 208 218 205 212 212 213 227 224 215 223 236 246
234 207 82 66 67 42 322 6 20 90 136 156 149 135 127 119 115 118 118 118 120 121 121 122 127 131 137 149 178 194 206 219 207 198 192 203 207 214 214 221 225 231 238 227
165 132 104 86 82 63 60 74 74 84 99 116 118 118 113 106 107 107 105 102 108 114 117 117 118 129 136 168 185 186 193 190 180 186 170 181 189 214 218 220 231 224 222 223
112 131 111 82 67 50 69 76 78 85 89 91 92 90 93 96 97 90 95 93 95 102 104 108 114 121 135 151 153 145 149 155 155 154 158 173 182 183 188 209 210 212 216 221
170 158 112 85 53 26 68 71 79 80 77 76 78 75 76 72 76 90 88 96 98 104 110 116 119 125 133 136 138 142 135 134 144 168 171 180 200 198 207 213 214 218 221 195
100 116 125 127 106 69 79 87 77 78 77 72 68 78 75 73 69 70 75 87 103 121 134 136 136 141 147 149 146 140 143 150 155 150 156 166 174 181 208 227 222 207 218 214
111 110 103 107 110 107 76 84 71 80 72 67 70 75 77 81 77 67 71 81 100 133 138 132 132 132 149 149 144 137 153 155 153 155 162 164 192 199 201 192 187 201 200 202
86 90 92 108 106 85 76 70 67 55 61 37 42 46 64 63 61 66 61 62 86 131 143 140 137 142 143 147 141 140 136 146 153 160 169 191 191 192 191 190 190 186 195 194
93 93 91 86 77 79 72 49 65 81 100 126 90 25 35 51 45 57 75 81 142 133 155 144 140 140 143 148 145 153 157 166 161 170 175 174 180 186 192 193 195 193 184 193
99 79 64 62 52 42 36 38 45 62 63 55 57 51 57 76 104 64 73 99 124 130 135 142 140 142 157 153 153 171 165 156 158 160 167 172 176 183 195 200 196 203 205 210
81 91 93 80 103 74 20 25 33 34 53 47 52 56 59 69 71 69 77 99 120 134 142 149 156 164 162 162 156 167 180 184 175 185 188 195 200 202 206 213 221 228 221 223
72 79 91 105 101 102 101 85 67 57 54 60 64 66 68 78 73 75 77 84 90 93 101 121 128 128 137 142 147 173 199 221 226 223 202 205 208 215 218 227 233 235 225 217
88 90 85 83 85 86 78 75 82 72 66 64 65 62 59 60 67 74 79 80 86 103 97 110 116 132 160 219 201 201 219 217 221 222 218 225 232 237 238 236 227 231 224 226
83 77 72 75 76 69 65 68 71 68 60 56 57 57 57 59 59 72 90 81 82 94 96 100 111 108 125 132 136 193 216 225 229 237 232 242 245 236 231 229 234 236 241 238
67 66 61 57 63 64 65 70 65 67 63 58 55 56 53 53 63 66 73 76 77 88 97 96 106 126 126 108 150 201 224 232 237 241 244 239 239 240 242 240 241 240 241 240
77 67 56 49 59 63 63 58 51 47 41 37 36 37 38 40 44 43 66 55 80 124 118 128 77 78 86 92 132 172 206 231 237 239 243 247 246 242 245 241 239 242 243 245
66 59 57 47 47 79 43 36 31 25 26 37 39 42 40 31 56 40 22 356 189 155 163 198 88 70 55 277 276 272 271 269 265 264 263 262 258 254 252 248 247 247 249 250
37 34 27 19 25 35 21 7 10 23 27 45 42 35 31 27 29 12 2 0 20 292 269 279 296 287 280 273 270 272 272 274 266 266 272 273 270 259 252 247 245 245 247 249
23 7 355 2 355 6 18 29 22 23 21 22 19 12 9 1 341 348 338 326 326 310 307 288 285 283 281 276 273 269 268 267 269 274 267 267 276 256 242 242 245 253 257 258
35 31 20 18 7 353 350 354 349 344 345 346 343 347 346 347 342 341 328 320 312 303 292 285 282 280 274 274 274 270 267 265 263 261 265 266 266 267 257 249 250 253 253 254
Wind_Speed_850mb
41 44 38 47 56 57 57 61 54 48 56 45 45 37 43 45 44 38 33 35 48 57 63 64 64 66 60 60 60 57 56 56 56 52 53 55 71 85 85 83 75 70 63 72
42 46 49 53 53 60 62 59 57 65 62 45 59 69 55 61 52 49 42 44 48 54 57 60 61 59 53 51 50 48 50 50 48 49 52 54 67 81 80 90 98 95 93 91
31 34 32 46 52 53 56 64 57 56 50 51 56 45 59 58 58 52 51 48 48 61 68 58 52 49 49 46 42 42 43 46 47 49 51 54 55 63 75 92 105 105 103 85
25 16 35 31 42 47 52 53 59 55 47 50 54 57 58 62 53 49 51 41 42 47 48 46 45 44 41 40 41 43 40 42 43 41 44 45 47 52 56 73 100 104 98 88
24 28 34 19 13 19 31 52 50 49 47 44 69 64 42 43 43 45 43 37 38 42 46 45 46 45 44 43 44 45 42 38 38 37 37 41 43 46 50 57 75 98 83 77
16 29 35 10 20 21 21 29 46 52 49 49 45 30 34 38 33 29 27 36 34 41 47 49 49 53 56 49 45 40 37 29 32 34 37 40 39 42 46 55 61 75 74 69
21 22 11 9 20 2 18 12 41 47 68 64 43 29 6 17 22 24 27 35 40 42 49 51 53 56 53 46 41 37 33 33 35 36 39 43 33 40 47 47 55 71 69 47
14 20 23 15 3 4 20 36 31 25 30 40 28 30 30 28 39 42 45 51 52 50 48 49 50 47 43 37 33 32 35 30 29 34 33 37 34 34 47 46 55 67 65 52
18 9 16 17 13 9 14 16 26 11 17 31 42 52 52 54 54 50 51 54 53 54 54 43 40 35 35 30 26 29 33 33 32 35 41 28 27 31 39 44 44 51 46 39
20 12 24 30 30 25 23 24 27 30 36 39 43 42 47 52 48 45 43 44 42 43 43 37 29 22 21 19 26 30 32 31 31 34 26 22 19 21 25 33 37 38 35 25
18 26 33 35 27 15 24 28 33 42 43 37 40 38 46 45 49 38 45 43 41 43 39 38 32 29 27 28 29 27 30 32 32 26 33 35 33 29 24 24 25 21 21 22
19 35 30 20 19 15 16 24 30 36 43 42 44 45 46 39 39 47 33 43 39 33 29 33 32 31 32 34 31 29 29 27 25 21 29 25 22 28 24 19 25 29 30 21
10 19 38 50 23 17 19 30 34 42 43 41 36 40 40 38 35 33 29 32 32 24 26 30 32 35 34 35 32 31 30 28 24 24 21 19 18 18 16 24 22 20 21 23
41 49 51 37 32 21 8 29 27 35 36 31 26 27 28 30 27 23 24 24 15 17 21 22 23 26 28 29 27 23 24 31 22 20 23 22 16 18 20 18 21 24 27 26
52 47 42 39 30 26 21 25 12 25 16 22 22 19 22 22 20 17 18 18 8 10 18 21 24 24 23 24 21 19 20 20 21 18 16 15 15 19 21 22 23 24 30 29
45 41 36 40 32 31 32 15 11 19 15 12 10 12 14 17 12 8 8 5 7 11 17 19 21 24 23 22 21 20 22 25 20 17 14 12 11 16 19 21 21 21 19 19
36 35 34 35 32 27 14 16 17 13 11 13 14 9 10 9 7 9 8 3 10 16 17 18 16 17 17 16 16 16 15 12 15 12 11 11 10 12 13 13 17 20 20 23
30 30 27 21 6 11 8 14 18 13 17 16 15 18 20 17 16 12 9 13 14 18 16 13 10 14 18 20 16 13 14 11 10 8 10 10 12 13 13 16 18 19 20 26
22 24 19 15 13 14 12 11 11 16 18 19 20 22 20 22 23 21 19 20 17 16 15 16 13 14 12 7 6 9 12 14 11 10 11 17 14 15 19 20 21 23 22 24
23 22 24 19 18 16 15 14 15 17 17 16 18 24 26 24 19 17 17 21 14 13 13 10 9 8 5 10 12 8 13 15 16 14 13 13 16 18 18 24 23 21 20 22
25 28 27 19 18 20 18 14 16 20 21 21 22 23 20 20 19 17 13 14 16 17 16 18 13 10 9 10 9 9 10 12 14 15 14 15 17 19 19 19 21 22 22 22
19 22 21 21 20 21 21 20 21 22 20 19 20 21 20 22 18 16 15 14 9 15 11 10 8 13 7 12 4 5 7 9 11 13 14 15 17 19 21 20 20 21 22 22
13 14 18 20 16 19 20 20 22 23 22 19 17 20 23 18 14 11 13 8 3 10 10 7 8 11 12 8 2 2 3 4 7 9 12 15 17 20 22 23 23 25 25 26
15 14 16 19 17 7 11 13 16 18 16 14 15 14 16 14 8 10 6 4 3 7 5 3 2 1 3 4 6 7 9 10 12 14 16 20 22 25 27 29 30 31 32 31
9 9 13 13 13 18 14 12 9 14 15 9 12 12 13 12 13 11 7 6 6 1 8 11 12 14 14 16 18 18 17 17 17 16 18 19 21 23 26 27 27 29 30 30
13 9 14 14 8 10 13 13 15 17 17 14 13 14 16 16 12 14 12 12 11 13 13 15 16 17 17 20 22 24 25 24 23 22 20 20 18 20 23 25 25 25 26 28
15 18 18 16 13 13 13 13 15 17 17 14 17 17 18 16 17 16 18 19 19 20 23 24 25 25 25 26 27 27 29 30 30 27 24 25 24 21 24 28 28 26 24 22
Wind_Direction_850mb
239 260 246 228 214 222 235 239 238 237 238 229 239 224 241 252 254 257 242 226 208 202 201 201 203 207 208 210 212 213 217 218 222 223 223 223 231 234 234 228 222 214 212 232
247 241 244 248 240 225 223 234 241 242 247 236 226 244 244 248 250 249 243 227 209 203 201 202 201 200 199 202 205 207 208 215 216 220 224 226 234 238 231 224 224 225 232 246
235 221 241 239 240 241 235 225 231 235 238 234 240 233 234 238 239 242 238 224 210 206 204 203 197 195 193 193 194 200 205 205 209 214 225 233 237 237 235 228 224 229 233 233
239 229 234 245 235 237 244 238 229 235 238 225 238 231 230 235 242 244 242 229 219 211 203 199 190 190 186 185 188 189 193 199 202 205 218 228 232 236 230 230 231 232 232 231
237 231 247 246 25 335 274 248 240 242 233 235 230 229 253 241 235 236 238 226 211 204 192 185 180 178 179 176 177 182 184 188 198 202 209 218 225 234 234 229 230 231 230 237
190 246 244 70 353 324 306 257 239 235 223 227 230 230 239 208 222 224 215 198 186 185 179 172 169 167 166 169 169 170 173 178 197 206 210 213 212 227 229 232 235 226 224 235
197 233 200 33 342 98 224 294 322 301 230 226 230 234 182 169 151 162 168 159 154 158 155 153 155 158 156 159 166 167 170 187 201 207 209 213 201 218 228 232 224 220 226 237
205 220 221 2 259 253 340 324 313 276 265 235 196 155 137 129 123 129 131 130 133 135 132 137 142 146 150 154 165 179 191 196 208 218 205 212 212 213 227 224 215 223 236 246
234 207 82 66 67 42 322 6 20 90 136 156 149 135 127 119 115 118 118 118 120 121 121 122 127 131 137 149 178 194 206 219 207 198 192 203 207 214 214 221 225 231 238 227
165 132 104 86 82 63 60 74 74 84 99 116 118 118 113 106 107 107 105 102 108 114 117 117 118 129 136 168 185 186 193 190 180 186 170 181 189 214 218 220 231 224 222 223
112 131 111 82 67 50 69 76 78 85 89 91 92 90 93 96 97 90 95 93 95 102 104 108 114 121 135 151 153 145 149 155 155 154 158 173 182 183 188 209 210 212 216 221
170 158 112 85 53 26 68 71 79 80 77 76 78 75 76 72 76 90 88 96 98 104 110 116 119 125 133 136 138 142 135 134 144 168 171 180 200 198 207 213 214 218 221 195
100 116 125 127 106 69 79 87 77 78 77 72 68 78 75 73 69 70 75 87 103 121 134 136 136 141 147 149 146 140 143 150 155 150 156 166 174 181 208 227 222 207 218 214
111 110 103 107 110 107 76 84 71 80 72 67 70 75 77 81 77 67 71 81 100 133 138 132 132 132 149 149 144 137 153 155 153 155 162 164 192 199 201 192 187 201 200 202
86 90 92 108 106 85 76 70 67 55 61 37 42 46 64 63 61 66 61 62 86 131 143 140 137 142 143 147 141 140 136 146 153 160 169 191 191 192 191 190 190 186 195 194
93 93 91 86 77 79 72 49 65 81 100 126 90 25 35 51 45 57 75 81 142 133 155 144 140 140 143 148 145 153 157 166 161 170 175 174 180 186 192 193 195 193 184 193
99 79 64 62 52 42 36 38 45 62 63 55 57 51 57 76 104 64 73 99 124 130 135 142 140 142 157 153 153 171 165 156 158 160 167 172 176 183 195 200 196 203 205 210
81 91 93 80 103 74 20 25 33 34 53 47 52 56 59 69 71 69 77 99 120 134 142 149 156 164 162 162 156 167 180 184 175 185 188 195 200 202 206 213 221 228 221 223
72 79 91 105 101 102 101 85 67 57 54 60 64 66 68 78 73 75 77 84 90 93 101 121 128 128 137 142 147 173 199 221 226 223 202 205 208 215 218 227 233 235 225 217
88 90 85 83 85 86 78 75 82 72 66 64 65 62 59 60 67 74 79 80 86 103 97 110 116 132 160 219 201 201 219 217 221 222 218 225 232 237 238 236 227 231 224 226
83 77 72 75 76 69 65 68 71 68 60 56 57 57 57 59 59 72 90 81 82 94 96 100 111 108 125 132 136 193 216 225 229 237 232 242 245 236 231 229 234 236 241 238
67 66 61 57 63 64 65 70 65 67 63 58 55 56 53 53 63 66 73 76 77 88 97 96 106 126 126 108 150 201 224 232 237 241 244 239 239 240 242 240 241 240 241 240
77 67 56 49 59 63 63 58 51 47 41 37 36 37 38 40 44 43 66 55 80 124 118 128 77 78 86 92 132 172 206 231 237 239 243 247 246 242 245 241 239 242 243 245
66 59 57 47 47 79 43 36 31 25 26 37 39 42 40 31 56 40 22 356 189 155 163 198 88 70 55 277 276 272 271 269 265 264 263 262 258 254 252 248 247 247 249 250
37 34 27 19 25 35 21 7 10 23 27 45 42 35 31 27 29 12 2 0 20 292 269 279 296 287 280 273 270 272 272 274 266 266 272 273 270 259 252 247 245 245 247 249
23 7 355 2 355 6 18 29 22 23 21 22 19 12 9 1 341 348 338 326 326 310 307 288 285 283 281 276 273 269 268 267 269 274 267 267 276 256 242 242 245 253 257 258
35 31 20 18 7 353 350 354 349 344 345 346 343 347 346 347 342 341 328 320 312 303 292 285 282 280 274 274 274 270 267 265 263 261 265 266 266 267 257 249 250 253 253 254